Weather History for Albuquerque Double Eagle, NM

Change the Weather History Date:

Wednesday, November 28, 2012

  Actual Average Record
Temperature  
Mean Temperature 40 °F -  
Max Temperature 57 °F - - ()
Min Temperature 23 °F - - ()
Degree Days  
Heating Degree Days 25    
Moisture  
Dew Point 11 °F    
Average Humidity 41    
Maximum Humidity 59    
Minimum Humidity 20    
Precipitation  
Precipitation 0.00 in - - ()
Sea Level Pressure  
Sea Level Pressure 30.32 in    
Wind  
Wind Speed 1 mph (SSE)    
Max Wind Speed 7 mph    
Max Gust Speed -    
Visibility 10 miles    
Events      
T = Trace of Precipitation, MM = Missing Value Source: NWS Daily Summary

Daily Weather History Graph

Daily Weather History Graph

Search for Another Location

Airport:

Trip Planner

Search our weather history database for the weather conditions in past years. The results will help you decide how hot, cold, wet, or windy it might be!

Date:

Astronomy

Nov. 28, 2012 Rise Set
Actual Time 6:54 AM MST 4:55 PM MST
Civil Twilight 6:27 AM MST 5:23 PM MST
Nautical Twilight 5:56 AM MST 5:54 PM MST
Astronomical Twilight 5:25 AM MST 6:25 PM MST
Moon 5:12 PM MST (11/28) 6:54 AM MST (11/28)
Length of Visible Light 10h 56m
Length of Day
10h 00m
Full, 100% of the Moon is Illuminated
Nov 28
Full
Dec 6
Last Quarter
Dec 13
New
Dec 19
First Quarter
Dec 28
Full

Hourly Weather History & Observations

Time (MST) Temp. Windchill Dew Point Humidity Pressure Visibility Wind Dir Wind Speed Gust Speed Precip Events Conditions
12:15 AM 24.8 °F - 8.6 °F 50% 30.36 in 10.0 mi Calm Calm - N/A   Clear
12:35 AM 24.8 °F - 8.6 °F 50% 30.36 in 10.0 mi Calm Calm - N/A   Clear
12:55 AM 24.8 °F - 10.4 °F 54% 30.36 in 10.0 mi Calm Calm - N/A   Clear
1:15 AM 26.6 °F - 10.4 °F 51% 30.36 in 10.0 mi Calm Calm - N/A   Clear
1:35 AM 26.6 °F - 10.4 °F 51% 30.36 in 10.0 mi Calm Calm - N/A   Clear
1:55 AM 26.6 °F - 10.4 °F 51% 30.36 in 10.0 mi Calm Calm - N/A   Clear
2:15 AM 24.8 °F - 10.4 °F 54% 30.37 in 10.0 mi Calm Calm - N/A   Clear
2:35 AM 24.8 °F - 8.6 °F 50% 30.37 in 10.0 mi Calm Calm - N/A   Clear
2:55 AM 23.0 °F - 8.6 °F 54% 30.37 in 10.0 mi Calm Calm - N/A   Clear
3:15 AM 24.8 °F - 10.4 °F 54% 30.37 in 10.0 mi Calm Calm - N/A   Clear
3:35 AM 23.0 °F - 8.6 °F 54% 30.37 in 10.0 mi Calm Calm - N/A   Clear
3:55 AM 23.0 °F - 8.6 °F 54% 30.37 in 10.0 mi Calm Calm - N/A   Clear
4:15 AM 23.0 °F - 8.6 °F 54% 30.37 in 10.0 mi Calm Calm - N/A   Clear
4:35 AM 24.8 °F - 12.2 °F 59% 30.36 in 10.0 mi Calm Calm - N/A   Clear
5:50 AM 23.0 °F - 10.4 °F 59% 30.37 in 10.0 mi Calm Calm - N/A   Clear
6:50 AM 23.0 °F - 8.6 °F 54% 30.38 in 10.0 mi Calm Calm - N/A   Clear
7:50 AM 26.6 °F - 6.8 °F 43% 30.39 in 10.0 mi Calm Calm - N/A   Clear
8:50 AM 39.2 °F - 10.4 °F 31% 30.39 in 10.0 mi Calm Calm - N/A   Partly Cloudy
9:50 AM 46.4 °F - 14.0 °F 27% 30.38 in 10.0 mi Calm Calm - N/A   Partly Cloudy
10:50 AM 48.2 °F - 12.2 °F 24% 30.36 in 10.0 mi Calm Calm - N/A   Partly Cloudy
11:50 AM 50.0 °F - 14.0 °F 24% 30.34 in 10.0 mi ESE 3.5 mph - N/A   Scattered Clouds
12:50 PM 55.4 °F - 15.8 °F 21% 30.31 in 10.0 mi SSW 4.6 mph - N/A   Scattered Clouds
1:50 PM 55.4 °F - 14.0 °F 20% 30.26 in 10.0 mi SE 6.9 mph - N/A   Scattered Clouds
2:50 PM 57.2 °F - 15.8 °F 20% 30.25 in 10.0 mi SSE 4.6 mph - N/A   Scattered Clouds
3:50 PM 55.4 °F - 15.8 °F 21% 30.25 in 10.0 mi South 5.8 mph - N/A   Scattered Clouds
4:50 PM 51.8 °F - 14.0 °F 22% 30.23 in 10.0 mi East 5.8 mph - N/A   Partly Cloudy
5:50 PM 41.0 °F 37.1 °F 10.4 °F 29% 30.24 in 10.0 mi South 5.8 mph - N/A   Partly Cloudy
7:50 PM 37.4 °F 32.1 °F 12.2 °F 36% 30.24 in 10.0 mi SSW 6.9 mph - N/A   Clear
8:50 PM 35.6 °F - 10.4 °F 35% 30.24 in 10.0 mi Calm Calm - N/A   Clear
9:15 PM 35.6 °F - 10.4 °F 35% 30.25 in 10.0 mi Calm Calm - N/A   Clear
9:35 PM 35.6 °F - 10.4 °F 35% 30.25 in 10.0 mi Calm Calm - N/A   Partly Cloudy
9:55 PM 32.0 °F - 10.4 °F 41% 30.25 in 10.0 mi Calm Calm - N/A   Partly Cloudy
10:15 PM 32.0 °F - 10.4 °F 41% 30.25 in 10.0 mi Calm Calm - N/A   Clear
10:35 PM 32.0 °F - 10.4 °F 41% 30.25 in 10.0 mi Calm Calm - N/A   Clear
10:55 PM 32.0 °F - 10.4 °F 41% 30.25 in 10.0 mi Calm Calm - N/A   Clear
11:15 PM 33.8 °F - 12.2 °F 41% 30.26 in 10.0 mi Calm Calm - N/A   Clear
11:35 PM 35.6 °F - 14.0 °F 41% 30.25 in 10.0 mi Calm Calm - N/A   Clear
11:55 PM 35.6 °F - 12.2 °F 38% 30.25 in 10.0 mi Calm Calm - N/A   Clear